| time (UTC) | temp F | wind direction | speed knots | gust knots | rain 1hr in | rain 24hr in | rain mn in | humidity % | barometer mb |
| 20260510081340 | 51 | 7 | 0.0 | 0.9 | 0.00 | 0.47 | 0.47 | 96 | 1011.3 |
| 20260510080837 | 51 | 55 | 0.0 | 0.9 | 0.00 | 0.47 | 0.47 | 96 | 1011.1 |
| 20260510080330 | 51 | 54 | 0.0 | 0.9 | 0.00 | 0.47 | 0.47 | 96 | 1011.3 |
| 20260510075828 | 51 | 127 | 0.0 | 0.0 | 0.00 | 0.47 | 0.47 | 96 | 1011.0 |
| 20260510075325 | 51 | 47 | 0.0 | 0.9 | 0.00 | 0.47 | 0.47 | 97 | 1010.9 |
| 20260510074822 | 51 | 124 | 0.0 | 0.9 | 0.00 | 0.47 | 0.47 | 97 | 1010.9 |
| 20260510074319 | 51 | 66 | 0.0 | 0.9 | 0.00 | 0.47 | 0.47 | 97 | 1010.7 |
| 20260510073815 | 52 | 105 | 0.9 | 1.7 | 0.00 | 0.47 | 0.47 | 97 | 1010.6 |
| 20260510073311 | 52 | 49 | 0.0 | 0.9 | 0.00 | 0.47 | 0.47 | 97 | 1010.5 |
| 20260510072807 | 52 | 102 | 1.7 | 1.7 | 0.00 | 0.47 | 0.47 | 97 | 1010.6 |
| 20260510072306 | 52 | 31 | 1.7 | 1.7 | 0.00 | 0.47 | 0.47 | 97 | 1010.5 |
| 20260510071800 | 53 | 35 | 1.7 | 2.6 | 0.00 | 0.47 | 0.47 | 97 | 1010.2 |
| 20260510071257 | 53 | 38 | 0.0 | 0.9 | 0.00 | 0.47 | 0.47 | 97 | 1010.2 |
| 20260510070756 | 53 | 38 | 1.7 | 1.7 | 0.00 | 0.47 | 0.47 | 98 | 1010.2 |
| 20260510070253 | 53 | 43 | 1.7 | 1.7 | 0.00 | 0.47 | 0.47 | 97 | 1010.4 |
| 20260510065752 | 53 | 33 | 0.9 | 1.7 | 0.00 | 0.47 | 0.47 | 97 | 1010.1 |
| 20260510065249 | 53 | 47 | 0.0 | 0.9 | 0.00 | 0.47 | 0.47 | 97 | 1010.1 |
| 20260510064746 | 54 | 38 | 0.0 | 0.0 | 0.00 | 0.47 | 0.47 | 97 | 1010.0 |
| 20260510064244 | 54 | 33 | 0.0 | 0.9 | 0.00 | 0.47 | 0.47 | 97 | 1010.0 |
| 20260510063739 | 54 | 118 | 0.0 | 0.9 | 0.00 | 0.47 | 0.47 | 97 | 1010.0 |
| 20260510063236 | 54 | 129 | 0.0 | 0.9 | 0.00 | 0.47 | 0.47 | 97 | 1010.1 |
| 20260510062733 | 54 | 141 | 1.7 | 1.7 | 0.00 | 0.47 | 0.47 | 97 | 1010.1 |
| 20260510062229 | 54 | 129 | 0.0 | 1.7 | 0.00 | 0.47 | 0.47 | 97 | 1009.9 |
| 20260510061724 | 54 | 103 | 0.9 | 1.7 | 0.00 | 0.47 | 0.47 | 97 | 1010.1 |
| 20260510061222 | 54 | 141 | 0.0 | 1.7 | 0.00 | 0.47 | 0.47 | 97 | 1010.4 |
| 20260510060718 | 54 | 138 | 2.6 | 2.6 | 0.00 | 0.47 | 0.47 | 97 | 1010.0 |
| 20260510060214 | 54 | 235 | 0.0 | 0.9 | 0.00 | 0.47 | 0.47 | 97 | 1010.0 |
| 20260510055711 | 54 | 144 | 0.0 | 0.0 | 0.00 | 0.47 | 0.47 | 97 | 1009.9 |
| 20260510055209 | 54 | 2 | 0.0 | 2.6 | 0.00 | 0.47 | 0.47 | 97 | 1010.1 |
| 20260510054704 | 54 | 26 | 2.6 | 2.6 | 0.00 | 0.47 | 0.47 | 97 | 1010.1 |
| 20260510054200 | 54 | 10 | 4.3 | 7.0 | 0.00 | 0.47 | 0.47 | 97 | 1010.1 |
| 20260510053700 | 54 | 348 | 4.3 | 4.3 | 0.00 | 0.47 | 0.47 | 97 | 1009.8 |
| 20260510053156 | 54 | 162 | 0.9 | 1.7 | 0.00 | 0.47 | 0.47 | 97 | 1009.0 |
| 20260510052652 | 54 | 157 | 0.0 | 1.7 | 0.00 | 0.47 | 0.47 | 97 | 1008.9 |
| 20260510052148 | 54 | 133 | 0.9 | 1.7 | 0.00 | 0.47 | 0.47 | 96 | 1008.7 |
| 20260510051644 | 54 | 157 | 1.7 | 1.7 | 0.00 | 0.47 | 0.47 | 96 | 1008.7 |
| 20260510051141 | 54 | 182 | 1.7 | 1.7 | 0.00 | 0.47 | 0.47 | 96 | 1008.7 |
| 20260510050638 | 54 | 164 | 1.7 | 3.5 | 0.00 | 0.47 | 0.47 | 96 | 1008.6 |
| 20260510050136 | 54 | 188 | 1.7 | 2.6 | 0.00 | 0.47 | 0.47 | 95 | 1008.5 |
| 20260510045632 | 54 | 193 | 1.7 | 2.6 | 0.00 | 0.47 | 0.47 | 95 | 1008.5 |
| 20260510045129 | 54 | 192 | 2.6 | 3.5 | 0.00 | 0.47 | 0.47 | 95 | 1008.6 |
| 20260510044625 | 54 | 191 | 2.6 | 2.6 | 0.02 | 0.47 | 0.47 | 95 | 1008.5 |
| 20260510044122 | 55 | 167 | 1.7 | 1.7 | 0.00 | 0.47 | 0.47 | 95 | 1008.5 |
| 20260510043618 | 55 | 190 | 2.6 | 2.6 | 0.00 | 0.47 | 0.47 | 95 | 1008.3 |
| 20260510043115 | 55 | 190 | 1.7 | 1.7 | 0.00 | 0.47 | 0.47 | 95 | 1008.2 |
| 20260510042613 | 55 | 130 | 2.6 | 3.5 | 0.02 | 0.47 | 0.47 | 96 | 1008.6 |
| 20260510042108 | 55 | 175 | 0.9 | 4.3 | 0.07 | 0.47 | 0.47 | 97 | 1008.9 |
| 20260510041605 | 55 | 184 | 4.3 | 4.3 | 0.07 | 0.47 | 0.47 | 97 | 1008.9 |
| 20260510041103 | 55 | 200 | 1.7 | 3.5 | 0.05 | 0.46 | 0.46 | 97 | 1008.9 |
| 20260510040559 | 55 | 207 | 3.5 | 4.3 | 0.17 | 0.45 | 0.45 | 98 | 1008.8 |
| 20260510040055 | 54 | 179 | 2.6 | 7.0 | 0.12 | 0.44 | 0.44 | 98 | 1009.2 |
| 20260510035552 | 54 | 224 | 1.7 | 3.5 | 0.02 | 0.42 | 0.42 | 98 | 1009.4 |
| 20260510035051 | 54 | 175 | 3.5 | 3.5 | 0.00 | 0.42 | 0.42 | 98 | 1009.1 |
| 20260510034550 | 54 | 187 | 2.6 | 3.5 | 0.00 | 0.42 | 0.42 | 98 | 1008.8 |
| 20260510034047 | 54 | 206 | 0.0 | 1.7 | 0.00 | 0.42 | 0.42 | 98 | 1008.6 |
| 20260510033543 | 54 | 169 | 0.0 | 1.7 | 0.00 | 0.42 | 0.42 | 98 | 1008.7 |
| 20260510033041 | 54 | 170 | 1.7 | 1.7 | 0.00 | 0.42 | 0.42 | 98 | 1008.5 |
| 20260510032537 | 54 | 177 | 1.7 | 2.6 | 0.00 | 0.42 | 0.42 | 98 | 1008.1 |
| 20260510032032 | 54 | 97 | 1.7 | 1.7 | 0.02 | 0.42 | 0.42 | 98 | 1008.2 |
| 20260510031527 | 54 | 46 | 0.9 | 1.7 | 0.07 | 0.42 | 0.42 | 98 | 1008.4 |
| 20260510031023 | 54 | 124 | 0.9 | 1.7 | 0.09 | 0.42 | 0.42 | 98 | 1008.6 |
| 20260510030519 | 54 | 6 | 1.7 | 3.5 | 0.17 | 0.41 | 0.41 | 98 | 1009.3 |
| 20260510030017 | 54 | 262 | 1.7 | 7.0 | 0.17 | 0.40 | 0.40 | 98 | 1009.7 |
| 20260510025513 | 54 | 251 | 3.5 | 3.5 | 0.07 | 0.38 | 0.38 | 98 | 1009.3 |
| 20260510025011 | 54 | 249 | 1.7 | 2.6 | 0.00 | 0.37 | 0.37 | 98 | 1008.9 |
| 20260510024508 | 54 | 72 | 0.0 | 1.7 | 0.00 | 0.37 | 0.37 | 98 | 1008.2 |
| 20260510024004 | 53 | 156 | 1.7 | 1.7 | 0.00 | 0.37 | 0.37 | 98 | 1008.4 |
| 20260510023500 | 53 | 131 | 0.0 | 1.7 | 0.00 | 0.37 | 0.37 | 98 | 1008.4 |
| 20260510022957 | 53 | 186 | 0.0 | 0.0 | 0.00 | 0.37 | 0.37 | 97 | 1008.3 |
| 20260510022456 | 53 | 224 | 0.0 | 0.0 | 0.00 | 0.37 | 0.37 | 97 | 1008.3 |
| 20260510021955 | 53 | 211 | 0.9 | 0.9 | 0.00 | 0.37 | 0.37 | 97 | 1008.3 |
| 20260510021453 | 53 | 136 | 0.0 | 0.9 | 0.00 | 0.37 | 0.37 | 97 | 1008.2 |
| 20260510020951 | 53 | 147 | 0.0 | 0.9 | 0.00 | 0.37 | 0.37 | 97 | 1008.2 |
| 20260510020450 | 54 | 145 | 0.0 | 1.7 | 0.00 | 0.37 | 0.37 | 97 | 1008.4 |
| 20260510015946 | 54 | 150 | 0.9 | 1.7 | 0.00 | 0.37 | 0.37 | 97 | 1008.4 |
| 20260510015442 | 54 | 137 | 0.0 | 1.7 | 0.00 | 0.37 | 0.37 | 97 | 1008.5 |
| 20260510014937 | 54 | 32 | 0.0 | 0.9 | 0.00 | 0.37 | 0.37 | 96 | 1008.5 |
| 20260510014436 | 54 | 117 | 0.9 | 1.7 | 0.00 | 0.37 | 0.37 | 97 | 1008.2 |
| 20260510013932 | 54 | 73 | 0.9 | 1.7 | 0.00 | 0.37 | 0.37 | 96 | 1008.4 |
| 20260510013426 | 54 | 65 | 0.9 | 0.9 | 0.00 | 0.37 | 0.37 | 96 | 1008.3 |
| 20260510012922 | 54 | 89 | 0.0 | 1.7 | 0.00 | 0.37 | 0.37 | 96 | 1008.2 |
| 20260510012417 | 54 | 109 | 0.9 | 1.7 | 0.00 | 0.37 | 0.37 | 96 | 1008.3 |
| 20260510011912 | 55 | 107 | 0.0 | 0.0 | 0.00 | 0.37 | 0.37 | 96 | 1007.9 |
| 20260510011408 | 55 | 117 | 0.0 | 1.7 | 0.00 | 0.37 | 0.37 | 96 | 1007.9 |
| 20260510010904 | 55 | 145 | 0.9 | 2.6 | 0.00 | 0.37 | 0.37 | 96 | 1007.9 |
| 20260510010401 | 55 | 128 | 0.0 | 1.7 | 0.00 | 0.37 | 0.37 | 96 | 1007.5 |
| 20260510005858 | 55 | 119 | 0.0 | 1.7 | 0.00 | 0.37 | 0.37 | 95 | 1007.5 |
| 20260510005354 | 55 | 113 | 0.0 | 0.9 | 0.00 | 0.37 | 0.37 | 95 | 1007.5 |
| 20260510004852 | 55 | 103 | 0.0 | 0.0 | 0.00 | 0.37 | 0.37 | 95 | 1007.7 |
| 20260510004349 | 55 | 130 | 0.0 | 0.9 | 0.00 | 0.37 | 0.37 | 95 | 1007.5 |
| 20260510003847 | 55 | 135 | 0.0 | 1.7 | 0.00 | 0.37 | 0.37 | 95 | 1007.4 |
| 20260510003343 | 55 | 235 | 0.0 | 3.5 | 0.02 | 0.37 | 0.37 | 95 | 1007.5 |
| 20260510002842 | 55 | 181 | 1.7 | 1.7 | 0.02 | 0.37 | 0.37 | 96 | 1007.7 |
| 20260510002339 | 55 | 186 | 0.9 | 1.7 | 0.00 | 0.37 | 0.37 | 96 | 1007.7 |
| 20260510001836 | 55 | 188 | 0.0 | 1.7 | 0.00 | 0.37 | 0.37 | 95 | 1007.7 |
| 20260510001334 | 55 | 167 | 1.7 | 1.7 | 0.05 | 0.37 | 0.37 | 95 | 1007.7 |
| 20260510000830 | 55 | 243 | 0.0 | 1.7 | 0.07 | 0.36 | 0.36 | 95 | 1007.7 |
| 20260510000328 | 55 | 343 | 0.0 | 2.6 | 0.12 | 0.36 | 0.36 | 94 | 1007.7 |
| 20260509235824 | 55 | 229 | 0.9 | 1.7 | 0.31 | 0.35 | 0.35 | 94 | 1007.8 |
| 20260509235321 | 55 | 7 | 0.9 | 3.5 | 0.64 | 0.34 | 0.34 | 93 | 1008.1 |
| 20260509234817 | 55 | 320 | 0.9 | 3.5 | 0.57 | 0.29 | 0.29 | 92 | 1008.0 |
| 20260509234314 | 55 | 342 | 1.7 | 3.5 | 0.80 | 0.23 | 0.23 | 91 | 1007.8 |
| 20260509233812 | 55 | 352 | 1.7 | 7.0 | 1.13 | 0.20 | 0.20 | 87 | 1007.2 |
| 20260509233309 | 58 | 48 | 3.5 | 7.8 | 0.45 | 0.08 | 0.08 | 81 | 1007.1 |
| 20260509232805 | 63 | 308 | 2.6 | 9.6 | 0.00 | 0.00 | 0.00 | 68 | 1007.2 |
| 20260509232306 | 66 | 5 | 1.7 | 2.6 | 0.00 | 0.00 | 0.00 | 59 | 1005.8 |
| 20260509231759 | 67 | 178 | 2.6 | 5.2 | 0.00 | 0.00 | 0.00 | 56 | 1005.0 |
| 20260509231256 | 67 | 169 | 3.5 | 7.0 | 0.00 | 0.00 | 0.00 | 55 | 1005.2 |
| 20260509230754 | 67 | 168 | 1.7 | 3.5 | 0.00 | 0.00 | 0.00 | 56 | 1005.4 |
| 20260509230250 | 67 | 163 | 3.5 | 3.5 | 0.00 | 0.00 | 0.00 | 56 | 1005.3 |
| 20260509225745 | 68 | 238 | 1.7 | 13.9 | 0.00 | 0.00 | 0.00 | 54 | 1005.5 |
| 20260509225242 | 68 | 303 | 2.6 | 3.5 | 0.00 | 0.00 | 0.00 | 54 | 1005.2 |
| 20260509224737 | 68 | 155 | 3.5 | 6.1 | 0.00 | 0.00 | 0.00 | 53 | 1005.2 |
| 20260509224235 | 68 | 182 | 0.9 | 3.5 | 0.00 | 0.00 | 0.00 | 55 | 1005.1 |
| 20260509223732 | 68 | 186 | 1.7 | 2.6 | 0.00 | 0.00 | 0.00 | 53 | 1005.2 |
| 20260509223229 | 68 | 272 | 2.6 | 7.8 | 0.00 | 0.00 | 0.00 | 53 | 1004.9 |
| 20260509222725 | 69 | 200 | 4.3 | 8.7 | 0.00 | 0.00 | 0.00 | 51 | 1005.0 |
| 20260509222221 | 69 | 180 | 1.7 | 1.7 | 0.00 | 0.00 | 0.00 | 52 | 1005.1 |
| 20260509221716 | 69 | 217 | 2.6 | 7.0 | 0.00 | 0.00 | 0.00 | 53 | 1004.9 |
| 20260509221213 | 70 | 259 | 1.7 | 4.3 | 0.00 | 0.00 | 0.00 | 49 | 1005.0 |
| 20260509220709 | 70 | 186 | 1.7 | 4.3 | 0.00 | 0.00 | 0.00 | 48 | 1005.0 |
| 20260509220206 | 71 | 302 | 2.6 | 5.2 | 0.00 | 0.00 | 0.00 | 48 | 1004.9 |
| 20260509215701 | 71 | 212 | 3.5 | 7.0 | 0.00 | 0.00 | 0.00 | 47 | 1005.0 |
| 20260509215158 | 70 | 200 | 3.5 | 5.2 | 0.00 | 0.00 | 0.00 | 48 | 1004.8 |
| 20260509214655 | 70 | 202 | 6.1 | 9.6 | 0.00 | 0.00 | 0.00 | 50 | 1004.8 |
| 20260509214152 | 71 | 207 | 2.6 | 5.2 | 0.00 | 0.00 | 0.00 | 50 | 1004.7 |
| 20260509213649 | 71 | 139 | 6.1 | 9.6 | 0.00 | 0.00 | 0.00 | 51 | 1004.9 |
| 20260509213144 | 71 | 189 | 2.6 | 4.3 | 0.00 | 0.00 | 0.00 | 51 | 1004.9 |
| 20260509212642 | 70 | 201 | 3.5 | 9.6 | 0.00 | 0.00 | 0.00 | 50 | 1005.1 |
| 20260509212139 | 71 | 284 | 6.1 | 7.8 | 0.00 | 0.00 | 0.00 | 51 | 1005.2 |
| 20260509211635 | 70 | 120 | 3.5 | 6.1 | 0.00 | 0.00 | 0.00 | 50 | 1005.2 |
| 20260509211132 | 71 | 230 | 3.5 | 7.8 | 0.00 | 0.00 | 0.00 | 52 | 1005.4 |
| 20260509210629 | 71 | 177 | 2.6 | 7.8 | 0.00 | 0.00 | 0.00 | 50 | 1005.2 |
| 20260509210126 | 70 | 68 | 0.9 | 6.1 | 0.00 | 0.00 | 0.00 | 52 | 1005.3 |
| 20260509205620 | 71 | 140 | 3.5 | 4.3 | 0.00 | 0.00 | 0.00 | 52 | 1005.5 |
| 20260509205115 | 70 | 265 | 1.7 | 5.2 | 0.00 | 0.00 | 0.00 | 54 | 1005.4 |
| 20260509204611 | 69 | 155 | 7.8 | 10.4 | 0.00 | 0.00 | 0.00 | 52 | 1005.5 |
| 20260509204108 | 69 | 215 | 2.6 | 7.0 | 0.00 | 0.00 | 0.00 | 54 | 1006.0 |
| 20260509203604 | 70 | 169 | 4.3 | 7.8 | 0.00 | 0.00 | 0.00 | 55 | 1005.7 |
| 20260509203103 | 69 | 132 | 4.3 | 8.7 | 0.00 | 0.00 | 0.00 | 52 | 1005.6 |
| 20260509202602 | 69 | 275 | 4.3 | 6.1 | 0.00 | 0.00 | 0.00 | 53 | 1005.6 |
| 20260509202059 | 69 | 255 | 2.6 | 4.3 | 0.00 | 0.00 | 0.00 | 52 | 1005.9 |
| 20260509201558 | 69 | 264 | 3.5 | 6.1 | 0.00 | 0.00 | 0.00 | 53 | 1005.7 |
| 20260509201057 | 69 | 236 | 4.3 | 9.6 | 0.00 | 0.00 | 0.00 | 53 | 1005.8 |
| 20260509200556 | 69 | 152 | 3.5 | 5.2 | 0.00 | 0.00 | 0.00 | 54 | 1005.9 |
| 20260509200053 | 69 | 194 | 3.5 | 4.3 | 0.00 | 0.00 | 0.00 | 55 | 1006.0 |
| 20260509195548 | 68 | 189 | 3.5 | 8.7 | 0.00 | 0.00 | 0.00 | 55 | 1006.0 |
| 20260509195043 | 68 | 149 | 3.5 | 11.3 | 0.00 | 0.00 | 0.00 | 54 | 1006.3 |
| 20260509194538 | 68 | 232 | 5.2 | 6.1 | 0.00 | 0.00 | 0.00 | 56 | 1006.4 |
| 20260509194036 | 67 | 112 | 1.7 | 7.0 | 0.00 | 0.00 | 0.00 | 58 | 1006.7 |
| 20260509193536 | 68 | 149 | 3.5 | 9.6 | 0.00 | 0.00 | 0.00 | 56 | 1006.6 |
| 20260509193033 | 67 | 212 | 3.5 | 6.1 | 0.00 | 0.00 | 0.00 | 56 | 1006.7 |
| 20260509192530 | 68 | 188 | 1.7 | 7.0 | 0.00 | 0.00 | 0.00 | 53 | 1006.8 |
| 20260509192025 | 67 | 168 | 4.3 | 13.0 | 0.00 | 0.00 | 0.00 | 55 | 1006.7 |
| 20260509191519 | 68 | 289 | 4.3 | 7.8 | 0.00 | 0.00 | 0.00 | 54 | 1006.8 |
| 20260509191015 | 67 | 34 | 2.6 | 9.6 | 0.00 | 0.00 | 0.00 | 55 | 1007.0 |
| 20260509190513 | 67 | 149 | 5.2 | 8.7 | 0.00 | 0.00 | 0.00 | 55 | 1006.8 |
| 20260509190010 | 67 | 180 | 3.5 | 9.6 | 0.00 | 0.00 | 0.00 | 57 | 1006.8 |
| 20260509185507 | 67 | 164 | 4.3 | 5.2 | 0.00 | 0.00 | 0.00 | 60 | 1006.9 |
| 20260509185004 | 68 | 161 | 3.5 | 6.1 | 0.00 | 0.00 | 0.00 | 57 | 1007.2 |
| 20260509184503 | 68 | 228 | 3.5 | 5.2 | 0.00 | 0.00 | 0.00 | 61 | 1006.9 |
| 20260509183958 | 67 | 136 | 5.2 | 9.6 | 0.00 | 0.00 | 0.00 | 57 | 1007.0 |
| 20260509183452 | 67 | 190 | 7.0 | 10.4 | 0.00 | 0.00 | 0.00 | 58 | 1007.1 |
| 20260509182949 | 67 | 124 | 5.2 | 6.1 | 0.00 | 0.00 | 0.00 | 57 | 1006.9 |
| 20260509182445 | 67 | 271 | 1.7 | 3.5 | 0.00 | 0.00 | 0.00 | 58 | 1007.1 |
| 20260509181943 | 67 | 259 | 3.5 | 5.2 | 0.00 | 0.00 | 0.00 | 61 | 1007.2 |
| 20260509181441 | 66 | 169 | 1.7 | 7.8 | 0.00 | 0.00 | 0.00 | 61 | 1007.2 |
| 20260509180939 | 67 | 211 | 3.5 | 5.2 | 0.00 | 0.00 | 0.00 | 61 | 1007.4 |
| 20260509180434 | 67 | 282 | 2.6 | 7.0 | 0.00 | 0.00 | 0.00 | 59 | 1007.1 |
| 20260509175931 | 66 | 163 | 5.2 | 7.0 | 0.00 | 0.00 | 0.00 | 58 | 1007.1 |
| 20260509175427 | 65 | 210 | 3.5 | 9.6 | 0.00 | 0.00 | 0.00 | 63 | 1007.3 |
| 20260509174923 | 66 | 271 | 4.3 | 5.2 | 0.00 | 0.00 | 0.00 | 60 | 1007.1 |
| 20260509174419 | 66 | 161 | 6.1 | 8.7 | 0.00 | 0.00 | 0.00 | 60 | 1007.2 |
| 20260509173916 | 66 | 305 | 1.7 | 7.0 | 0.00 | 0.00 | 0.00 | 62 | 1007.1 |
| 20260509173415 | 66 | 218 | 3.5 | 8.7 | 0.00 | 0.00 | 0.00 | 59 | 1007.0 |
| 20260509172912 | 66 | 157 | 0.9 | 3.5 | 0.00 | 0.00 | 0.00 | 64 | 1007.0 |
| 20260509172409 | 65 | 249 | 2.6 | 5.2 | 0.00 | 0.00 | 0.00 | 68 | 1007.1 |
| 20260509171904 | 65 | 230 | 2.6 | 6.1 | 0.00 | 0.00 | 0.00 | 64 | 1007.2 |
| 20260509171400 | 65 | 59 | 1.7 | 4.3 | 0.00 | 0.00 | 0.00 | 67 | 1007.1 |
| 20260509170857 | 64 | 191 | 2.6 | 5.2 | 0.00 | 0.00 | 0.00 | 65 | 1007.2 |
| 20260509170353 | 63 | 223 | 0.0 | 5.2 | 0.00 | 0.00 | 0.00 | 69 | 1007.2 |
| 20260509165848 | 62 | 158 | 3.5 | 6.1 | 0.00 | 0.00 | 0.00 | 70 | 1007.3 |
| 20260509165342 | 63 | 128 | 2.6 | 5.2 | 0.00 | 0.00 | 0.00 | 69 | 1007.2 |
| 20260509164839 | 63 | 206 | 2.6 | 5.2 | 0.00 | 0.00 | 0.00 | 68 | 1007.5 |
| 20260509164335 | 63 | 183 | 1.7 | 7.0 | 0.00 | 0.00 | 0.00 | 68 | 1007.8 |
| 20260509163831 | 63 | 252 | 1.7 | 1.7 | 0.00 | 0.00 | 0.00 | 69 | 1007.4 |
| 20260509163328 | 64 | 138 | 3.5 | 7.0 | 0.00 | 0.00 | 0.00 | 68 | 1007.5 |
| 20260509162828 | 63 | 240 | 4.3 | 4.3 | 0.00 | 0.00 | 0.00 | 74 | 1007.8 |
| 20260509162325 | 62 | 250 | 2.6 | 5.2 | 0.00 | 0.00 | 0.00 | 73 | 1007.9 |
| 20260509161822 | 62 | 155 | 6.1 | 11.3 | 0.00 | 0.00 | 0.00 | 75 | 1008.0 |
| 20260509161319 | 62 | 268 | 1.7 | 4.3 | 0.00 | 0.00 | 0.00 | 76 | 1007.9 |
| 20260509160814 | 62 | 159 | 5.2 | 7.0 | 0.00 | 0.00 | 0.00 | 74 | 1008.0 |
| 20260509160310 | 62 | 284 | 1.7 | 6.1 | 0.00 | 0.00 | 0.00 | 78 | 1007.9 |
| 20260509155806 | 62 | 262 | 3.5 | 3.5 | 0.00 | 0.00 | 0.00 | 81 | 1007.9 |
| 20260509155306 | 60 | 141 | 3.5 | 3.5 | 0.00 | 0.00 | 0.00 | 82 | 1007.9 |
| 20260509154758 | 61 | 199 | 3.5 | 3.5 | 0.00 | 0.00 | 0.00 | 83 | 1007.7 |
| 20260509154256 | 60 | 209 | 2.6 | 3.5 | 0.00 | 0.00 | 0.00 | 82 | 1008.1 |
| 20260509153753 | 60 | 287 | 0.0 | 5.2 | 0.00 | 0.00 | 0.00 | 85 | 1007.7 |
| 20260509153248 | 59 | 131 | 2.6 | 6.1 | 0.00 | 0.00 | 0.00 | 84 | 1007.8 |
| 20260509152745 | 58 | 258 | 1.7 | 4.3 | 0.00 | 0.00 | 0.00 | 86 | 1008.1 |
| 20260509152242 | 58 | 147 | 0.0 | 2.6 | 0.00 | 0.00 | 0.00 | 88 | 1007.8 |
| 20260509151739 | 58 | 275 | 1.7 | 1.7 | 0.00 | 0.00 | 0.00 | 88 | 1008.0 |
| 20260509151235 | 58 | 273 | 3.5 | 9.6 | 0.00 | 0.00 | 0.00 | 87 | 1008.0 |
| 20260509150734 | 58 | 258 | 1.7 | 3.5 | 0.00 | 0.00 | 0.00 | 88 | 1008.0 |
| 20260509150232 | 58 | 142 | 3.5 | 4.3 | 0.00 | 0.00 | 0.00 | 91 | 1007.9 |
| 20260509145728 | 57 | 137 | 0.9 | 2.6 | 0.00 | 0.00 | 0.00 | 93 | 1008.0 |
| 20260509145222 | 56 | 127 | 2.6 | 3.5 | 0.00 | 0.00 | 0.00 | 94 | 1008.0 |
| 20260509144719 | 56 | 127 | 1.7 | 3.5 | 0.00 | 0.00 | 0.00 | 95 | 1008.1 |
| 20260509144216 | 55 | 124 | 0.0 | 1.7 | 0.00 | 0.00 | 0.00 | 95 | 1007.9 |
| 20260509143714 | 55 | 199 | 0.0 | 4.3 | 0.00 | 0.00 | 0.00 | 96 | 1007.8 |
| 20260509143211 | 55 | 204 | 0.0 | 1.7 | 0.00 | 0.00 | 0.00 | 96 | 1007.9 |
| 20260509142706 | 55 | 134 | 1.7 | 3.5 | 0.00 | 0.00 | 0.00 | 97 | 1008.0 |
| 20260509142203 | 54 | 215 | 1.7 | 1.7 | 0.00 | 0.00 | 0.00 | 97 | 1007.9 |
| 20260509141659 | 54 | 288 | 2.6 | 2.6 | 0.00 | 0.00 | 0.00 | 98 | 1007.9 |
| 20260509141156 | 54 | 118 | 1.7 | 2.6 | 0.00 | 0.00 | 0.00 | 98 | 1007.7 |
| 20260509140652 | 54 | 111 | 0.0 | 1.7 | 0.00 | 0.00 | 0.00 | 98 | 1007.9 |
| 20260509140150 | 54 | 159 | 0.0 | 0.9 | 0.00 | 0.00 | 0.00 | 98 | 1007.9 |
| 20260509135647 | 54 | 119 | 0.0 | 1.7 | 0.00 | 0.00 | 0.00 | 99 | 1007.8 |
| 20260509135146 | 53 | 129 | 3.5 | 3.5 | 0.00 | 0.00 | 0.00 | 99 | 1008.0 |
| 20260509134641 | 53 | 140 | 1.7 | 3.5 | 0.00 | 0.00 | 0.00 | 99 | 1008.0 |
| 20260509134139 | 53 | 131 | 0.0 | 1.7 | 0.00 | 0.00 | 0.00 | 99 | 1007.9 |
| 20260509133636 | 53 | 130 | 0.0 | 0.9 | 0.00 | 0.00 | 0.00 | 99 | 1007.8 |
| 20260509133133 | 53 | 150 | 0.9 | 1.7 | 0.00 | 0.00 | 0.00 | 99 | 1008.0 |
| 20260509132631 | 53 | 83 | 0.9 | 2.6 | 0.00 | 0.00 | 0.00 | 99 | 1008.0 |
| 20260509132130 | 53 | 137 | 0.9 | 4.3 | 0.00 | 0.00 | 0.00 | 99 | 1008.0 |
| 20260509131625 | 53 | 126 | 1.7 | 1.7 | 0.00 | 0.00 | 0.00 | 99 | 1008.1 |
| 20260509131123 | 53 | 149 | 3.5 | 3.5 | 0.00 | 0.00 | 0.00 | 99 | 1008.2 |
| 20260509130618 | 53 | 133 | 1.7 | 2.6 | 0.00 | 0.00 | 0.00 | 99 | 1008.1 |
| 20260509130115 | 52 | 160 | 1.7 | 1.7 | 0.00 | 0.00 | 0.00 | 99 | 1008.1 |
| 20260509125611 | 52 | 106 | 1.7 | 2.6 | 0.00 | 0.00 | 0.00 | 99 | 1008.1 |
| 20260509125108 | 52 | 118 | 1.7 | 2.6 | 0.00 | 0.00 | 0.00 | 99 | 1008.1 |
| 20260509124605 | 52 | 140 | 0.9 | 1.7 | 0.00 | 0.00 | 0.00 | 99 | 1008.2 |
| 20260509124102 | 52 | 62 | 0.0 | 2.6 | 0.00 | 0.00 | 0.00 | 99 | 1008.1 |
| 20260509123600 | 52 | 112 | 2.6 | 2.6 | 0.00 | 0.00 | 0.00 | 99 | 1008.3 |
| 20260509123056 | 52 | 84 | 0.9 | 1.7 | 0.00 | 0.00 | 0.00 | 99 | 1008.3 |
| 20260509122552 | 52 | 149 | 1.7 | 3.5 | 0.00 | 0.00 | 0.00 | 99 | 1008.3 |
| 20260509122050 | 52 | 146 | 0.9 | 2.6 | 0.02 | 0.00 | 0.00 | 99 | 1008.4 |
| 20260509121546 | 52 | 99 | 1.7 | 1.7 | 0.02 | 0.00 | 0.00 | 99 | 1008.3 |
| 20260509121048 | 51 | 75 | 1.7 | 1.7 | 0.00 | 0.00 | 0.00 | 99 | 1008.2 |
| 20260509120542 | 51 | 130 | 2.6 | 3.5 | 0.00 | 0.00 | 0.00 | 99 | 1008.3 |
| 20260509120040 | 51 | 120 | 1.7 | 3.5 | 0.00 | 0.63 | 0.63 | 99 | 1008.4 |
| 20260509115536 | 51 | 149 | 1.7 | 3.5 | 0.00 | 0.63 | 0.63 | 99 | 1008.4 |
| 20260509115034 | 51 | 136 | 2.6 | 2.6 | 0.00 | 0.63 | 0.63 | 99 | 1008.3 |
| 20260509114532 | 51 | 125 | 1.7 | 1.7 | 0.00 | 0.63 | 0.63 | 99 | 1008.4 |
| 20260509114031 | 51 | 137 | 0.9 | 1.7 | 0.00 | 0.63 | 0.63 | 99 | 1008.4 |
| 20260509113529 | 51 | 143 | 0.9 | 1.7 | 0.00 | 0.63 | 0.63 | 99 | 1008.5 |
| 20260509113026 | 51 | 164 | 0.0 | 2.6 | 0.00 | 0.63 | 0.63 | 99 | 1008.4 |
| 20260509112522 | 51 | 141 | 0.9 | 2.6 | 0.00 | 0.63 | 0.63 | 99 | 1008.5 |
| 20260509112019 | 51 | 126 | 1.7 | 2.6 | 0.00 | 0.63 | 0.63 | 99 | 1008.2 |
| 20260509111517 | 51 | 138 | 0.9 | 3.5 | 0.00 | 0.63 | 0.63 | 99 | 1008.4 |
| 20260509111014 | 51 | 139 | 2.6 | 3.5 | 0.00 | 0.63 | 0.63 | 99 | 1008.1 |
| 20260509110510 | 51 | 165 | 1.7 | 1.7 | 0.00 | 0.63 | 0.63 | 99 | 1008.3 |
| 20260509110007 | 51 | 134 | 2.6 | 2.6 | 0.00 | 0.63 | 0.63 | 99 | 1008.1 |
| 20260509105506 | 51 | 136 | 3.5 | 3.5 | 0.00 | 0.63 | 0.63 | 99 | 1008.0 |
| 20260509105003 | 51 | 117 | 1.7 | 3.5 | 0.00 | 0.63 | 0.63 | 99 | 1008.1 |
| 20260509104459 | 50 | 191 | 0.9 | 2.6 | 0.00 | 0.63 | 0.63 | 99 | 1008.0 |
| 20260509103957 | 50 | 102 | 1.7 | 2.6 | 0.00 | 0.63 | 0.63 | 99 | 1008.2 |
| 20260509103454 | 50 | 118 | 1.7 | 2.6 | 0.00 | 0.63 | 0.63 | 99 | 1008.2 |
| 20260509102952 | 50 | 127 | 1.7 | 3.5 | 0.00 | 0.63 | 0.63 | 99 | 1008.1 |
| 20260509102449 | 50 | 97 | 1.7 | 2.6 | 0.00 | 0.63 | 0.63 | 99 | 1008.3 |
| 20260509101945 | 50 | 97 | 0.0 | 1.7 | 0.00 | 0.63 | 0.63 | 99 | 1008.3 |
| 20260509101442 | 50 | 134 | 1.7 | 3.5 | 0.02 | 0.63 | 0.63 | 99 | 1008.1 |
| 20260509100939 | 50 | 123 | 1.7 | 3.5 | 0.02 | 0.63 | 0.63 | 99 | 1008.1 |
| 20260509100437 | 50 | 141 | 1.7 | 1.7 | 0.02 | 0.63 | 0.63 | 99 | 1008.3 |
| 20260509095933 | 50 | 143 | 1.7 | 1.7 | 0.05 | 0.63 | 0.63 | 99 | 1008.3 |
| 20260509095430 | 50 | 105 | 1.7 | 2.6 | 0.02 | 0.62 | 0.62 | 99 | 1008.1 |
| 20260509094927 | 50 | 128 | 2.6 | 3.5 | 0.05 | 0.62 | 0.62 | 99 | 1008.3 |
| 20260509094424 | 50 | 112 | 1.7 | 2.6 | 0.02 | 0.62 | 0.62 | 99 | 1008.3 |
| 20260509093922 | 50 | 113 | 2.6 | 4.3 | 0.02 | 0.61 | 0.61 | 99 | 1008.4 |
| 20260509093419 | 50 | 142 | 1.7 | 3.5 | 0.00 | 0.61 | 0.61 | 99 | 1008.3 |
| 20260509092917 | 50 | 142 | 2.6 | 3.5 | 0.00 | 0.61 | 0.61 | 99 | 1008.4 |
| 20260509092414 | 50 | 144 | 1.7 | 5.2 | 0.00 | 0.61 | 0.61 | 99 | 1008.4 |
| 20260509091913 | 50 | 145 | 1.7 | 3.5 | 0.00 | 0.61 | 0.61 | 99 | 1008.5 |
| 20260509091409 | 50 | 139 | 3.5 | 4.3 | 0.00 | 0.61 | 0.61 | 99 | 1008.5 |
| 20260509090906 | 50 | 117 | 3.5 | 3.5 | 0.00 | 0.61 | 0.61 | 99 | 1008.6 |
| 20260509090403 | 50 | 161 | 3.5 | 3.5 | 0.00 | 0.61 | 0.61 | 99 | 1008.7 |
| 20260509085901 | 50 | 130 | 2.6 | 3.5 | 0.00 | 0.61 | 0.61 | 99 | 1008.7 |
| 20260509085358 | 50 | 123 | 1.7 | 2.6 | 0.02 | 0.61 | 0.61 | 99 | 1008.7 |
| 20260509084854 | 50 | 124 | 2.6 | 3.5 | 0.02 | 0.61 | 0.61 | 99 | 1008.8 |
| 20260509084351 | 50 | 116 | 1.7 | 2.6 | 0.05 | 0.61 | 0.61 | 99 | 1008.8 |
| 20260509083849 | 50 | 112 | 2.6 | 3.5 | 0.09 | 0.61 | 0.61 | 99 | 1008.8 |
| 20260509083345 | 50 | 142 | 1.7 | 3.5 | 0.07 | 0.60 | 0.60 | 99 | 1008.9 |
| 20260509082842 | 50 | 116 | 1.7 | 3.5 | 0.07 | 0.59 | 0.59 | 99 | 1008.9 |
| 20260509082339 | 50 | 128 | 2.6 | 5.2 | 0.07 | 0.59 | 0.59 | 99 | 1008.9 |
| 20260509081837 | 50 | 163 | 1.7 | 3.5 | 0.02 | 0.57 | 0.57 | 99 | 1008.9 |